Tracking 26006 objects as of 17-Aug-2022
HD Live streaming from Space Station
objects crossing your sky now

RESURS O1 DEB

Track RESURS O1 DEB now!
10-day predictions


NORAD ID: 49239
Int'l Code: 1994-074FT
Perigee: 597.4 km
Apogee: 598.6 km
Inclination: 97.9 °
Period: 96.5 minutes
Semi major axis: 6969 km
RCS: Unknown
Launch date: November 4, 1994
Source: Commonwealth of Independent States (former USSR) (CIS)
Launch site: TYURATAM MISSILE AND SPACE COMPLEX (TTMTR)

Note: This is SATELLITE DEBRIS
aabbcc
Your satellite tracking list
Your tracking list is empty




NASA's NSSDC Master Catalog

Two Line Element Set (TLE):
1 49239U 94074FT  22228.40578970  .00018507  00000-0  18156-2 0  9991
2 49239  97.8909 278.9292 0000839  86.7179 273.4136 14.92258572 54839
Source of the keplerian elements: AFSPC